TimeEDT,TemperatureF,Dew PointF,Humidity,Sea Level PressureIn,VisibilityMPH,Wind Direction,Wind SpeedMPH,Gust SpeedMPH,PrecipitationIn,Events,Conditions,WindDirDegrees,DateUTC
12:15 AM,46.4,23.2,40,29.93,10.0,WSW,4.6,-,N/A,,Overcast,250,2012-11-02 04:15:00
12:35 AM,46.0,23.5,41,29.93,10.0,WSW,3.5,-,N/A,,Overcast,250,2012-11-02 04:35:00
12:55 AM,46.2,23.5,41,29.92,10.0,WSW,3.5,-,N/A,,Overcast,250,2012-11-02 04:55:00
1:15 AM,46.2,23.7,41,29.92,10.0,West,3.5,-,N/A,,Overcast,280,2012-11-02 05:15:00
1:35 AM,45.7,24.3,43,29.92,10.0,West,3.5,-,N/A,,Overcast,260,2012-11-02 05:35:00
1:55 AM,46.2,23.9,42,29.91,10.0,WSW,4.6,-,N/A,,Overcast,250,2012-11-02 05:55:00
2:15 AM,46.4,24.1,42,29.91,10.0,West,4.6,-,N/A,,Overcast,260,2012-11-02 06:15:00
2:35 AM,46.8,24.6,42,29.91,10.0,WSW,4.6,-,N/A,,Overcast,250,2012-11-02 06:35:00
2:55 AM,46.4,25.5,44,29.91,10.0,West,4.6,-,N/A,,Overcast,260,2012-11-02 06:55:00
3:15 AM,46.4,25.9,45,29.91,10.0,WSW,4.6,-,N/A,,Overcast,250,2012-11-02 07:15:00
3:35 AM,46.4,26.2,45,29.90,10.0,WSW,4.6,-,N/A,,Overcast,240,2012-11-02 07:35:00
3:55 AM,46.4,26.2,45,29.89,10.0,WSW,4.6,-,N/A,,Overcast,240,2012-11-02 07:55:00
4:15 AM,46.8,26.4,45,29.89,10.0,WSW,4.6,-,N/A,,Overcast,240,2012-11-02 08:15:00
4:35 AM,46.6,26.4,45,29.88,10.0,SW,3.5,-,N/A,,Overcast,220,2012-11-02 08:35:00
4:55 AM,46.8,26.6,45,29.88,10.0,WSW,4.6,-,N/A,,Overcast,240,2012-11-02 08:55:00
5:15 AM,46.8,26.6,45,29.88,10.0,SW,4.6,-,N/A,,Overcast,230,2012-11-02 09:15:00
5:35 AM,46.6,26.8,46,29.88,10.0,SW,3.5,-,N/A,,Overcast,230,2012-11-02 09:35:00
5:55 AM,46.8,27.0,46,29.87,10.0,Calm,Calm,-,N/A,,Overcast,0,2012-11-02 09:55:00
6:15 AM,46.8,27.1,46,29.87,10.0,SSW,3.5,-,N/A,,Overcast,210,2012-11-02 10:15:00
6:35 AM,46.4,27.7,48,29.87,10.0,SW,3.5,-,N/A,,Overcast,220,2012-11-02 10:35:00
6:55 AM,46.4,28.8,50,29.88,10.0,WSW,4.6,-,N/A,,Overcast,250,2012-11-02 10:55:00
7:15 AM,46.6,29.3,51,29.88,10.0,West,3.5,-,N/A,,Overcast,270,2012-11-02 11:15:00
7:35 AM,46.8,29.3,51,29.88,10.0,West,4.6,-,N/A,,Overcast,270,2012-11-02 11:35:00
7:55 AM,46.9,30.0,52,29.89,10.0,West,4.6,-,N/A,,Overcast,270,2012-11-02 11:55:00
8:15 AM,47.3,30.7,53,29.90,10.0,West,8.1,-,N/A,,Overcast,280,2012-11-02 12:15:00
8:35 AM,47.5,31.3,53,29.91,10.0,WNW,5.8,-,N/A,,Overcast,290,2012-11-02 12:35:00
9:55 AM,46.4,30.6,54,29.97,10.0,North,4.6,-,N/A,,Overcast,350,2012-11-02 13:55:00
10:15 AM,47.5,30.4,52,29.98,10.0,NNW,3.5,-,N/A,,Scattered Clouds,340,2012-11-02 14:15:00
10:35 AM,47.3,29.7,50,29.99,10.0,North,8.1,-,N/A,,Mostly Cloudy,10,2012-11-02 14:35:00
10:55 AM,47.5,29.7,50,30.00,10.0,North,8.1,16.1,N/A,,Mostly Cloudy,360,2012-11-02 14:55:00
11:15 AM,48.4,30.0,49,30.00,10.0,NNW,6.9,-,N/A,,Scattered Clouds,340,2012-11-02 15:15:00
11:35 AM,50.4,30.6,47,30.00,10.0,NNW,4.6,-,N/A,,Clear,340,2012-11-02 15:35:00
11:55 AM,49.6,28.4,44,30.00,10.0,NW,5.8,-,N/A,,Clear,320,2012-11-02 15:55:00
12:15 PM,51.1,28.8,42,30.00,10.0,North,8.1,-,N/A,,Clear,350,2012-11-02 16:15:00
12:35 PM,51.1,28.6,42,30.00,10.0,North,4.6,-,N/A,,Clear,10,2012-11-02 16:35:00
12:55 PM,51.8,28.9,41,30.00,10.0,NNW,8.1,-,N/A,,Clear,330,2012-11-02 16:55:00
1:15 PM,52.7,29.7,41,29.99,10.0,North,4.6,-,N/A,,Clear,360,2012-11-02 17:15:00
1:35 PM,52.7,29.5,41,29.99,10.0,North,6.9,-,N/A,,Clear,350,2012-11-02 17:35:00
1:55 PM,52.7,28.9,40,29.98,10.0,WSW,5.8,-,N/A,,Clear,250,2012-11-02 17:55:00
2:15 PM,54.0,30.0,40,29.98,10.0,North,6.9,-,N/A,,Clear,350,2012-11-02 18:15:00
2:35 PM,53.6,29.1,39,29.98,10.0,West,4.6,-,N/A,,Clear,270,2012-11-02 18:35:00
2:55 PM,54.0,28.9,38,29.98,10.0,NNW,6.9,-,N/A,,Clear,340,2012-11-02 18:55:00
3:15 PM,54.5,28.8,37,29.99,10.0,WNW,5.8,-,N/A,,Clear,300,2012-11-02 19:15:00
3:35 PM,54.5,28.2,36,29.99,10.0,WNW,5.8,-,N/A,,Clear,300,2012-11-02 19:35:00
3:55 PM,55.2,28.8,36,29.99,10.0,NNW,4.6,-,N/A,,Clear,340,2012-11-02 19:55:00
4:15 PM,55.0,28.0,35,29.99,10.0,WNW,5.8,-,N/A,,Clear,300,2012-11-02 20:15:00
4:35 PM,54.7,28.2,36,30.00,10.0,NW,4.6,-,N/A,,Clear,320,2012-11-02 20:35:00
4:55 PM,54.9,27.7,35,30.00,10.0,WNW,5.8,-,N/A,,Clear,290,2012-11-02 20:55:00
5:15 PM,54.3,27.7,36,30.01,10.0,WNW,8.1,-,N/A,,Clear,300,2012-11-02 21:15:00
5:55 PM,51.8,25.7,36,30.02,10.0,NW,6.9,-,N/A,,Clear,310,2012-11-02 21:55:00
6:15 PM,51.4,26.1,37,30.03,10.0,NW,6.9,-,N/A,,Clear,310,2012-11-02 22:15:00
6:35 PM,50.2,26.4,40,30.03,10.0,NW,3.5,-,N/A,,Clear,310,2012-11-02 22:35:00
6:55 PM,49.3,26.8,42,30.04,10.0,NW,4.6,-,N/A,,Clear,310,2012-11-02 22:55:00
7:15 PM,48.6,27.3,44,30.05,10.0,NW,4.6,-,N/A,,Clear,310,2012-11-02 23:15:00
7:55 PM,47.5,27.5,46,30.06,10.0,Calm,Calm,-,N/A,,Clear,0,2012-11-02 23:55:00
8:15 PM,47.5,27.5,46,30.06,10.0,NW,4.6,-,N/A,,Clear,320,2012-11-03 00:15:00
8:35 PM,47.5,27.1,45,30.07,10.0,NNW,5.8,-,N/A,,Clear,330,2012-11-03 00:35:00
8:55 PM,46.8,27.0,46,30.07,10.0,NNW,4.6,-,N/A,,Clear,340,2012-11-03 00:55:00
9:15 PM,46.6,27.1,47,30.08,10.0,NNW,3.5,-,N/A,,Clear,330,2012-11-03 01:15:00
9:35 PM,45.9,27.1,48,30.08,10.0,Calm,Calm,-,N/A,,Clear,0,2012-11-03 01:35:00
9:55 PM,44.6,27.3,51,30.09,10.0,North,3.5,-,N/A,,Clear,360,2012-11-03 01:55:00
10:15 PM,43.7,27.9,54,30.09,10.0,North,3.5,-,N/A,,Clear,360,2012-11-03 02:15:00
10:35 PM,43.7,27.9,54,30.10,10.0,Calm,Calm,-,N/A,,Clear,0,2012-11-03 02:35:00
10:55 PM,43.5,28.0,54,30.10,10.0,North,3.5,-,N/A,,Clear,360,2012-11-03 02:55:00
11:15 PM,42.6,28.2,57,30.10,10.0,Calm,Calm,-,N/A,,Clear,0,2012-11-03 03:15:00
11:35 PM,41.9,28.2,58,30.11,10.0,Calm,Calm,-,N/A,,Clear,0,2012-11-03 03:35:00
11:55 PM,41.9,28.2,58,30.10,10.0,Calm,Calm,-,N/A,,Clear,0,2012-11-03 03:55:00